Weather History for KMBG - April, 2014

Change the Weather History Date:

Sunday, April 20, 2014

  Actual Average Record
Temperature  
Mean Temperature 56 °F 47 °F  
Max Temperature 77 °F 60 °F 93 °F (1980)
Min Temperature 35 °F 34 °F 10 °F (1966)
Degree Days  
Heating Degree Days 9 18  
Month to date heating degree days 507 437  
Since 1 July heating degree days 8191 7439  
Cooling Degree Days 0 0  
Month to date cooling degree days 0 0  
Year to date cooling degree days 0 0  
Growing Degree Days 6 (Base 50)    
Moisture  
Dew Point 30 °F    
Average Humidity 53    
Maximum Humidity 89    
Minimum Humidity 16    
Precipitation  
Precipitation 0.00 in 0.05 in 2.25 in (1971)
Month to date precipitation 0.31 0.80  
Year to date precipitation 1.43 2.43  
Snow  
Snow 0.00 in - - ()
Month to date snowfall 3.5  
Since 1 July snowfall 44.3  
Snow Depth 0.00 in    
Sea Level Pressure  
Sea Level Pressure 29.94 in    
Wind  
Wind Speed 10 mph (SE)    
Max Wind Speed 21 mph    
Max Gust Speed 25 mph    
Visibility 10 miles    
Events      
T = Trace of Precipitation, MM = Missing Value Source: NWS Daily Summary

Daily Weather History Graph

Daily Weather History Graph

Search for Another Location

Airport or City:

Trip Planner

Search our weather history database for the weather conditions in past years. The results will help you decide how hot, cold, wet, or windy it might be!

Date:

Astronomy

Apr. 20, 2014 Rise Set
Actual Time 6:47 AM CDT 8:34 PM CDT
Civil Twilight 6:15 AM CDT 9:06 PM CDT
Nautical Twilight 5:37 AM CDT 9:44 PM CDT
Astronomical Twilight 4:55 AM CDT 10:26 PM CDT
Moon 1:21 AM CDT (4/20) 11:03 AM CDT (4/20)
Length of Visible Light 14h 50m
Length of Day
13h 47m
Waning Gibbous, 68% of the Moon is Illuminated
Apr 20
Waning Gibbous
Apr 22
Last Quarter
Apr 29
New
May 6
First Quarter
May 14
Full

Hourly Weather History & Observations

Time (CDT) Temp. Windchill Dew Point Humidity Pressure Visibility Wind Dir Wind Speed Gust Speed Precip Events Conditions
12:52 AM 43.0 °F 39.5 °F 28.0 °F 56% 29.97 in 10.0 mi ENE 5.8 mph - N/A   Clear
1:52 AM 39.9 °F 36.7 °F 28.9 °F 65% 29.98 in 10.0 mi ENE 4.6 mph - N/A   Clear
2:52 AM 37.9 °F 35.5 °F 28.9 °F 70% 29.98 in 10.0 mi ESE 3.5 mph - N/A   Clear
3:52 AM 37.9 °F 33.5 °F 28.9 °F 70% 29.97 in 10.0 mi ESE 5.8 mph - N/A   Clear
4:52 AM 37.0 °F 31.0 °F 30.9 °F 79% 29.97 in 10.0 mi ESE 8.1 mph - N/A   Clear
5:52 AM 36.0 °F 29.0 °F 30.9 °F 82% 29.97 in 10.0 mi East 9.2 mph - N/A   Clear
6:52 AM 36.0 °F 32.1 °F 32.0 °F 86% 29.96 in 10.0 mi SE 4.6 mph - N/A   Clear
7:52 AM 39.9 °F 35.8 °F 35.1 °F 83% 29.97 in 10.0 mi ESE 5.8 mph - N/A   Clear
8:52 AM 46.9 °F - 36.0 °F 66% 29.97 in 10.0 mi SSE 9.2 mph - N/A   Clear
9:52 AM 54.0 °F - 33.1 °F 45% 29.96 in 10.0 mi SSE 10.4 mph - N/A   Clear
10:52 AM 60.1 °F - 32.0 °F 35% 29.95 in 10.0 mi SSE 11.5 mph - N/A   Clear
11:52 AM 66.9 °F - 28.0 °F 23% 29.93 in 10.0 mi South 16.1 mph - N/A   Clear
1:52 PM 73.9 °F - 26.1 °F 17% 29.89 in 10.0 mi SSE 19.6 mph - N/A   Clear
2:52 PM 75.9 °F - 26.1 °F 16% 29.87 in 10.0 mi South 18.4 mph - N/A   Clear
3:52 PM 75.9 °F - 27.0 °F 16% 29.86 in 10.0 mi SSW 16.1 mph - N/A   Clear
4:52 PM 75.9 °F - 33.1 °F 21% 29.85 in 10.0 mi South 11.5 mph - N/A   Clear
5:52 PM 75.9 °F - 33.1 °F 21% 29.85 in 10.0 mi South 5.8 mph - N/A   Clear
6:52 PM 75.0 °F - 33.1 °F 22% 29.85 in 10.0 mi Calm Calm - N/A   Clear
7:52 PM 68.0 °F - 35.1 °F 30% 29.88 in 10.0 mi NNW 11.5 mph - N/A   Partly Cloudy
8:52 PM 60.1 °F - 30.0 °F 32% 29.94 in 10.0 mi NNW 10.4 mph - N/A   Clear
9:52 PM 55.0 °F - 28.0 °F 35% 29.97 in 10.0 mi NNW 12.7 mph - N/A   Clear
10:52 PM 52.0 °F - 27.0 °F 38% 29.99 in 10.0 mi North 12.7 mph - N/A   Clear
11:52 PM 50.0 °F - 26.1 °F 39% 30.00 in 10.0 mi North 10.4 mph - N/A   Clear